User: anonymous   Login
Location: Newark
(49.3000°N, 9.4667°E)
Time: 23:10:36
(UTC+00:00)
Language:

Explorer 7 - Orbit

View from above orbital plane
View from above orbital plane
View from above satellite
View from above satellite

Ground track
Ground track

The orbit data is extracted from the following two-line orbital elements,

1    22U 59009A   19140.19714850 -.00000032  00000-0  20862-4 0  9995
2    22  50.2831 151.5023 0140268 192.8388 166.8973 14.94862613166346
Epoch (UTC): 20 May 2019 04:43:53
Eccentricity: 0.0140268
inclination: 50.2831°
perigee height: 485 km
apogee height: 680 km
right ascension of ascending node: 151.5023°
argument of perigee: 192.8388°
revolutions per day: 14.94862613
mean anomaly at epoch: 166.8973°
orbit number at epoch: 16634

The dashed part of the orbit path shows where the satellite is in the earth's shadow,  

DLR